This is the latest recevied weather packets stored in our database for station/object KD0SBN-3. If no packets are shown the sender has not sent any weather packets the latest 10 day(s).
| Time | Temp. | Humidity | Pressure | Rain* | Wind** | Luminosity | Snow |
|---|---|---|---|---|---|---|---|
| 1777915040 | 12.78° C | 34% | 1022.4 hPa | 0 mm | - | 333 W/m² | - |
| 1777914737 | 12.78° C | 34% | 1022.3 hPa | 0 mm | - | 344 W/m² | - |
| 1777914434 | 12.78° C | 35% | 1022.4 hPa | 0 mm | - | 319 W/m² | - |
| 1777914131 | 12.22° C | 35% | 1022.5 hPa | 0 mm | - | 298 W/m² | - |
| 1777913827 | 12.78° C | 34% | 1022.5 hPa | 0 mm | - | 265 W/m² | - |
| 1777913523 | 12.22° C | 35% | 1022.5 hPa | 0 mm | - | 258 W/m² | - |
| 1777913220 | 11.67° C | 35% | 1022.4 hPa | 0 mm | - | 270 W/m² | - |
| 1777912916 | 12.22° C | 35% | 1022.1 hPa | 0 mm | - | 261 W/m² | - |
| 1777912613 | 11.67° C | 37% | 1022.3 hPa | 0 mm | - | 252 W/m² | - |
| 1777912310 | 11.67° C | 36% | 1022 hPa | 0 mm | - | 248 W/m² | - |
| 1777912005 | 11.11° C | 37% | 1022.3 hPa | 0 mm | - | 261 W/m² | - |
| 1777911702 | 11.67° C | 36% | 1022.4 hPa | 0 mm | - | 256 W/m² | - |
| 1777911398 | 11.67° C | 37% | 1022.3 hPa | 0 mm | - | 261 W/m² | - |
| 1777911096 | 11.67° C | 38% | 1022.4 hPa | 0 mm | - | 261 W/m² | - |
| 1777910793 | 11.67° C | 37% | 1022.1 hPa | 0 mm | - | 258 W/m² | - |
| 1777910489 | 11.11° C | 38% | 1022.3 hPa | 0 mm | - | 279 W/m² | - |
| 1777910186 | 11.11° C | 39% | 1022.3 hPa | 0 mm | - | 314 W/m² | - |
| 1777909884 | 11.11° C | 39% | 1022.4 hPa | 0 mm | - | 278 W/m² | - |
| 1777909580 | 11.67° C | 40% | 1022.4 hPa | 0 mm | - | 317 W/m² | - |
| 1777909278 | 11.11° C | 39% | 1022.4 hPa | 0 mm | - | 276 W/m² | - |
| 1777908976 | 10.56° C | 40% | 1022.4 hPa | 0 mm | - | 259 W/m² | - |
| 1777908674 | 10.56° C | 40% | 1022.6 hPa | 0 mm | - | 229 W/m² | - |
| 1777908370 | 10.56° C | 41% | 1022.4 hPa | 0 mm | - | 232 W/m² | - |
| 1777908066 | 10.56° C | 42% | 1022.6 hPa | 0 mm | - | 221 W/m² | - |
| 1777907762 | 10.56° C | 41% | 1022.4 hPa | 0 mm | - | 241 W/m² | - |
* Rain latest hour (hover to see other rain measurements)
** Current wind speed in m/s (hover to see current wind gust speed)